| time (UTC) | temp F | wind direction | speed knots | gust knots | rain 1hr in | rain 24hr in | rain mn in | humidity % | barometer mb |
| 20260507052207 | 48 | 43 | 0.0 | 3.5 | 0.00 | 0.00 | 0.00 | 88 | 1015.7 |
| 20260507042157 | 48 | 43 | 0.9 | 3.5 | 0.00 | 0.00 | 0.00 | 88 | 1015.3 |
| 20260507032157 | 48 | 43 | 0.9 | 4.3 | 0.00 | 0.00 | 0.00 | 88 | 1015.3 |
| 20260507022155 | 48 | 41 | 0.9 | 3.5 | 0.00 | 0.00 | 0.00 | 88 | 1015.1 |
| 20260507012155 | 49 | 40 | 0.0 | 3.5 | 0.00 | 0.00 | 0.00 | 86 | 1014.9 |
| 20260507002155 | 49 | 46 | 0.9 | 3.5 | 0.00 | 0.00 | 0.00 | 87 | 1014.9 |
| 20260506232155 | 50 | 49 | 0.9 | 4.3 | 0.00 | 0.00 | 0.00 | 86 | 1014.8 |
| 20260506222153 | 50 | 38 | 1.7 | 6.1 | 0.00 | 0.00 | 0.00 | 84 | 1014.7 |
| 20260506212154 | 51 | 46 | 1.7 | 7.8 | 0.00 | 0.00 | 0.00 | 80 | 1014.5 |
| 20260506202154 | 52 | 348 | 3.5 | 7.8 | 0.00 | 0.00 | 0.00 | 73 | 1014.2 |
| 20260506192152 | 53 | 42 | 0.9 | 3.5 | 0.00 | 0.00 | 0.00 | 75 | 1013.6 |
| 20260506182152 | 53 | 47 | 0.0 | 6.1 | 0.00 | 0.00 | 0.00 | 72 | 1013.1 |
| 20260506172143 | 53 | 38 | 2.6 | 7.0 | 0.00 | 0.00 | 0.00 | 69 | 1012.8 |
| 20260506162143 | 54 | 41 | 2.6 | 7.0 | 0.00 | 0.00 | 0.00 | 67 | 1012.8 |
| 20260506152144 | 55 | 44 | 2.6 | 8.7 | 0.00 | 0.00 | 0.00 | 66 | 1012.7 |
| 20260506142144 | 55 | 0 | 3.5 | 9.6 | 0.00 | 0.00 | 0.00 | 68 | 1012.7 |
| 20260506132143 | 55 | 27 | 3.5 | 11.3 | 0.00 | 0.00 | 0.00 | 68 | 1012.9 |
| 20260506122143 | 54 | 21 | 4.3 | 11.3 | 0.00 | 0.00 | 0.00 | 68 | 1012.8 |
| 20260506112143 | 54 | 5 | 4.3 | 10.4 | 0.00 | 0.00 | 0.00 | 67 | 1012.8 |
| 20260506102143 | 54 | 9 | 5.2 | 13.9 | 0.00 | 0.00 | 0.00 | 67 | 1012.8 |
| 20260506092144 | 51 | 10 | 4.3 | 13.9 | 0.00 | 0.00 | 0.00 | 73 | 1012.9 |
| 20260506082144 | 51 | 355 | 5.2 | 11.3 | 0.00 | 0.00 | 0.00 | 76 | 1012.5 |
| 20260506072143 | 48 | 348 | 4.3 | 10.4 | 0.00 | 0.00 | 0.00 | 83 | 1012.7 |
| 20260506062144 | 46 | 49 | 4.3 | 8.7 | 0.00 | 0.00 | 0.00 | 85 | 1012.5 |